Weather History for Kansas City, MO

Change the Weather History Date:

Tuesday, March 12, 2013

  Actual Average Record
Temperature  
Mean Temperature 38 °F -  
Max Temperature 48 °F 50 °F 80 °F (2008)
Min Temperature 30 °F 31 °F 3 °F (1998)
Degree Days  
Heating Degree Days 27    
Moisture  
Dew Point 22 °F    
Average Humidity 55    
Maximum Humidity 76    
Minimum Humidity 37    
Precipitation  
Precipitation 0.00 in - - ()
Sea Level Pressure  
Sea Level Pressure 30.19 in    
Wind  
Wind Speed 5 mph (WNW)    
Max Wind Speed 18 mph    
Max Gust Speed 28 mph    
Visibility 10 miles    
Events      
Averages and records for this station are not official NWS values.
T = Trace of Precipitation, MM = Missing Value Source: NWS Daily Summary

Daily Weather History Graph

Daily Weather History Graph

Search for Another Location

Airport:

Trip Planner

Search our weather history database for the weather conditions in past years. The results will help you decide how hot, cold, wet, or windy it might be!

Date:

Astronomy

Mar. 12, 2013 Rise Set
Actual Time 7:33 AM CDT 7:22 PM CDT
Civil Twilight 7:07 AM CDT 7:49 PM CDT
Nautical Twilight 6:36 AM CDT 8:20 PM CDT
Astronomical Twilight 6:05 AM CDT 8:51 PM CDT
Moon 7:41 AM CDT (3/12) 8:37 PM CDT (3/12)
Length of Visible Light 12h 41m
Length of Day
11h 48m
New Moon, 1% of the Moon is Illuminated
Mar 12
New Moon
Mar 19
First Quarter
Mar 27
Full
Apr 2
Last Quarter
Apr 10
New

Hourly Weather History & Observations

Time (CDT) Temp. Windchill Dew Point Humidity Pressure Visibility Wind Dir Wind Speed Gust Speed Precip Events Conditions
12:54 AM 33.1 °F - 21.0 °F 61% 30.04 in 10.0 mi Calm Calm - N/A   Clear
1:54 AM 30.9 °F - 23.0 °F 72% 30.04 in 10.0 mi Calm Calm - N/A   Clear
2:54 AM 32.0 °F - 24.1 °F 73% 30.06 in 10.0 mi Calm Calm - N/A   Clear
3:54 AM 30.9 °F - 24.1 °F 76% 30.07 in 10.0 mi Calm Calm - N/A   Clear
4:54 AM 30.9 °F 27.5 °F 21.9 °F 69% 30.09 in 10.0 mi West 3.5 mph - N/A   Clear
5:54 AM 33.1 °F 27.7 °F 21.0 °F 61% 30.12 in 10.0 mi WNW 5.8 mph - N/A   Clear
6:54 AM 32.0 °F - 21.0 °F 64% 30.14 in 10.0 mi Calm Calm - N/A   Clear
7:54 AM 32.0 °F - 21.9 °F 66% 30.16 in 10.0 mi Calm Calm - N/A   Mostly Cloudy
8:54 AM 34.0 °F 31.0 °F 24.1 °F 67% 30.17 in 10.0 mi West 3.5 mph - N/A   Partly Cloudy
9:54 AM 37.0 °F 33.3 °F 25.0 °F 62% 30.19 in 10.0 mi West 4.6 mph - N/A   Mostly Cloudy
10:54 AM 43.0 °F 36.0 °F 24.1 °F 47% 30.20 in 10.0 mi WNW 13.8 mph 20.7 mph N/A   Mostly Cloudy
11:54 AM 44.1 °F 37.7 °F 23.0 °F 43% 30.21 in 10.0 mi WNW 12.7 mph 25.3 mph N/A   Overcast
12:54 PM 46.0 °F 39.3 °F 21.0 °F 37% 30.22 in 10.0 mi West 16.1 mph 25.3 mph N/A   Partly Cloudy
1:54 PM 46.0 °F 40.2 °F 21.0 °F 37% 30.20 in 10.0 mi NW 12.7 mph 24.2 mph N/A   Partly Cloudy
2:54 PM 45.0 °F 37.6 °F 21.9 °F 40% 30.19 in 10.0 mi NNW 17.3 mph 25.3 mph N/A   Mostly Cloudy
3:54 PM 43.0 °F 34.8 °F 23.0 °F 45% 30.20 in 10.0 mi NNW 18.4 mph 27.6 mph N/A   Overcast
4:54 PM 43.0 °F 36.4 °F 21.0 °F 42% 30.23 in 10.0 mi WNW 12.7 mph 27.6 mph N/A   Overcast
5:54 PM 43.0 °F 35.4 °F 19.0 °F 38% 30.23 in 10.0 mi WNW 16.1 mph 27.6 mph N/A   Mostly Cloudy
6:54 PM 41.0 °F 32.5 °F 21.0 °F 45% 30.25 in 10.0 mi NW 17.3 mph 25.3 mph N/A   Clear
7:54 PM 37.0 °F 29.8 °F 21.0 °F 52% 30.29 in 10.0 mi NNW 10.4 mph - N/A   Clear
8:54 PM 35.1 °F 32.2 °F 21.0 °F 57% 30.31 in 10.0 mi WNW 3.5 mph - N/A   Clear
9:54 PM 34.0 °F 28.0 °F 21.0 °F 59% 30.32 in 10.0 mi NW 6.9 mph - N/A   Clear
10:54 PM 34.0 °F 27.2 °F 19.9 °F 56% 30.34 in 10.0 mi NW 8.1 mph - N/A   Clear
11:54 PM 32.0 °F 25.6 °F 19.9 °F 61% 30.36 in 10.0 mi NW 6.9 mph - N/A   Clear